UmKA 1 (RS40S)
1 57172U 23091G   26143.81267439  .00004592  00000-0  21300-3 0  9992
2 57172  97.5063 202.6075 0012460 197.4605 162.6204 15.20491866160304
CubeBel-2 (EU11S)
1 57175U 23091K   26143.83593914  .00009468  00000-0  34366-3 0  9990
2 57175  97.5062 206.8458 0009939 191.8500 168.2507 15.28489669160580
RS-38S
1 57189U 23091Z   26143.84177139  .00012911  00000-0  38041-3 0  9994
2 57189  97.5099 212.8538 0008559 150.1240 210.0493 15.35134018160951
SONATE-2
1 59112U 24043Q   26143.40680014  .00030129  00000-0  42191-3 0  9995
2 59112  97.5512 292.3247 0005770 287.1628  72.8995 15.56735067124036
GRBBeta
1 60237U 24128C   26143.52939397  .00003473  00000-0  24406-3 0  9994
2 60237  61.9901 302.7647 0044079 129.6386 230.8610 15.06407365102554
Curium One
1 60242U 24128H   26143.50769869  .00007098  00000-0  41391-3 0  9992
2 60242  61.9790 293.1590 0043661 125.8282 234.6883 15.12064436102723
ROBUSTA-3A
1 60243U 24128J   26143.52506251  .00006935  00000-0  41362-3 0  9996
2 60243  61.9871 295.4327 0044880 123.2071 237.3340 15.11234971102695
CatSat
1 60246U 24125J   26143.52733009  .00041353  00000-0  59564-3 0  9995
2 60246  97.2114 355.7599 0021043 271.4200  88.4644 15.55657912103557
HYPERVIEW-1G (RS66S)
1 61772U 24199AP  26143.50140645  .00084000  00000-0  70729-3 0  9999
2 61772  97.2923  22.0862 0005224  32.4931 327.6652 15.69570198130794
AO-123
1 61781U 24199AY  26143.46617453  .00005980  00000-0  17640-3 0  9993
2 61781  97.3034  12.3625 0015145  43.7208 316.5232 15.35262420130130
JINJUSat 1B
1 63210U 25052A   26143.21263185  .00013598  00000-0  43381-3 0  9998
2 63210  97.4027  39.9465 0004177 143.0045 217.1486 15.32616688 66271
NUSHSAT 1
1 63211U 25052B   26143.22955800  .00016573  00000-0  49197-3 0  9999
2 63211  97.4003  40.4472 0003921 141.8919 218.2602 15.34865651 66318
TEVEL2-4
1 63213U 25052D   26143.46179228  .00014095  00000-0  43570-3 0  9995
2 63213  97.3931  39.8262 0002947 148.8347 211.3070 15.33621124 66325
TEVEL2-5
1 63214U 25052E   26143.28386209  .00014874  00000-0  46196-3 0  9997
2 63214  97.3926  39.6029 0002855 149.8407 210.3000 15.33458993 66295
TEVEL2-6
1 63215U 25052F   26143.23033435  .00014640  00000-0  45529-3 0  9993
2 63215  97.3928  39.5340 0002954 149.8028 210.3385 15.33419791 66280
TEVEL2-1
1 63217U 25052H   26142.98987833  .00014092  00000-0  44540-3 0  9999
2 63217  97.3903  38.9470 0002450 161.1599 198.9734 15.32913163 66238
TEVEL2-3
1 63218U 25052J   26143.44230547  .00014370  00000-0  45322-3 0  9993
2 63218  97.3905  39.4180 0002485 162.6568 197.4759 15.32976783 66301
TEVEL2-2
1 63219U 25052K   26143.44725507  .00013245  00000-0  41857-3 0  9998
2 63219  97.3903  39.4058 0002473 161.2605 198.8728 15.32932109 66303
TEVEL2-9
1 63237U 25052AD  26143.26260290  .00013228  00000-0  44340-3 0  9992
2 63237  97.3963  38.6491 0004766 212.9481 147.1463 15.31030010 66216
TEVEL2-7
1 63238U 25052AE  26143.42964269  .00012261  00000-0  41462-3 0  9996
2 63238  97.3968  38.7418 0004848 212.7446 147.3495 15.30760941 66233
TEVEL2-8
1 63239U 25052AF  26143.43762618  .00012363  00000-0  41829-3 0  9992
2 63239  97.3968  38.7275 0004812 213.4496 146.6442 15.30743030 66233
HYDRA-W
1 63490U 25052BL  26113.93882235  .05662091  24406-5  29537-2 0  9997
2 63490  97.3690  18.2798 0008685 203.5899 156.4993 16.20186780 62336
HADES-ICM (SO-125)
1 63492U 25052BN  26141.26653903  .06532167  24596-5  20834-2 0  9996
2 63492  97.3646  46.2798 0012082 212.8267 147.2275 16.26141053 66568
SPIRONE
1 66657U 25274H   26143.73345492  .00001454  00000-0  14357-3 0  9990
2 66657  97.7480  73.3768 0013755  94.9002 265.3788 14.93426266 26578
K-HERO
1 66660U 25274L   26143.74492727  .00001611  00000-0  15678-3 0  9991
2 66660  97.7488  73.5310 0015621  98.9494 261.3495 14.93850045 26586
SNUGLITE-III DURI
1 66661U 25274M   26143.73344484  .00001193  00000-0  11733-3 0  9990
2 66661  97.7484  73.5395 0016181  99.8988 260.4059 14.93901296 26587
SilverSat
1 66909U 98067XV  26113.44966717  .07226154  12288-4  11979-2 0  9998
2 66909  51.6027 190.0749 0007952 333.4666  26.5949 16.32457272 22308
SAKHACUBE-CHOLBON
1 67290U 25313AU  26143.87681679  .00008130  00000-0  33424-3 0  9997
2 67290  97.3936 219.2240 0010884  85.3262 274.9218 15.24372634 22273
RS95S (QMR-KWT-2)
1 67291U 25313AV  26143.82016925  .00011785  00000-0  46639-3 0  9991
2 67291  97.3934 219.2963 0010402  85.0473 275.1953 15.25552610 22275
Ten-Koh2
1 68261U 25241B   26143.81466419  .00006256  00000-0  27179-3 0  9990
2 68261  51.6606  75.5968 0006590  69.3639 290.8045 15.23547395 11199
JACK-002
1 68417U 26067B   26143.85729995  .00005022  00000-0  24293-3 0  9999
2 68417  97.4552 102.7572 0003003  47.2540 312.8946 15.19040566  8257
DISCO 2
1 68431U 26067R   26143.87276056  .00005533  00000-0  27035-3 0  9996
2 68431  97.4589 102.7632 0004406  84.7548 275.4189 15.18644302  8252
HADES-SA (SpinnyONE)
1 68446U 26067AG  26140.67798287  .00011372  00000-0  56129-3 0  9996
2 68446  97.4403  99.4112 0008038 151.4172 208.7504 15.18027540  7751
PARUS-6U1
1 68456U 26067AS  26143.85466133  .00004145  00000-0  21175-3 0  9995
2 68456  97.4539 102.6002 0006928 134.4259 225.7543 15.17219741  8242
SAL-E
1 68458U 26067AU  26143.85314620  .00005825  00000-0  29497-3 0  9991
2 68458  97.4465 102.5517 0006988 141.8451 218.3278 15.17355150  8242
FSI-SAT 2
1 68792U 26088A   26143.84649727  .00003294  00000-0  22606-3 0  9996
2 68792  97.5034 293.7256 0014541 185.5140 174.5930 15.06594949  4628
OrigamiSat 2
1 68795U 26088D   26143.68399341  .00002914  00000-0  19265-3 0  9990
2 68795  97.5055 293.6388 0016433 159.5965 200.5924 15.08047101  4603
ARICA 2
1 68796U 26088E   26143.81429683  .00003631  00000-0  23812-3 0  9999
2 68796  97.5039 293.7640 0016496 157.2609 202.9354 15.08189561  4629
WASEDA-SAT-ZERO-II
1 68797U 26088F   26143.81276078  .00005092  00000-0  33123-3 0  9997
2 68797  97.5038 293.7657 0016435 157.1871 203.0091 15.08308499  4623
MANGARO-II-Piscus
1 68798U 26088G   26143.87271949  .00002949  00000-0  19192-3 0  9994
2 68798  97.5044 293.8428 0019825 160.4089 199.7905 15.08569246  4637
IO-86
1 40931U          25360.30710720  .00000000  00000-0  12800-3 0    00
2 40931   6.0006 332.5373 0012733 338.8432   8.1437 14.79075515    01
LILIUM-4                
1 71922C 26067AC  26089.50133053 -.00014632  00000+0 -74472-3 0    04
2 71922  97.4497  49.1617 0004341   5.9603 355.7042 15.16896692    16
